Regional Weather Roundup
Issued by NWS

Home | Current Version | Previous Version | Text Only | Print | Product List | Glossary Off
Versions: 1 2 3 4 5 6 7 8 9 10 11 12 13 14 15 16 17 18 19 20 21 22 23 24 25 26 27 28 29 30 31 32 33 34 35 36 37 38 39 40 41 42 43 44 45 46 47 48 49 50

000
ASUS43 KBIS 010920
RWRND

NORTH DAKOTA REGIONAL WEATHER ROUNDUP
NATIONAL WEATHER SERVICE BISMARCK ND
400 AM CDT MON SEP 01 2014

NOTE: "FAIR" INDICATES FEW OR NO CLOUDS BELOW 12,000 FEET WITH NO
SIGNIFICANT WEATHER AND/OR OBSTRUCTIONS TO VISIBILITY.


NDZ001>003-009>011-017-011000-
NORTHWEST NORTH DAKOTA

CITY           SKY/WX    TMP DP  RH WIND       PRES   REMARKS
WILLISTON      CLEAR     50  48  93 NW6       29.78F
MINOT          CLEAR     52  49  89 SW6       29.75R
MINOT AFB      CLEAR     50  49  99 W8        29.74S
$$

NDZ018>021-031>035-040>046-011000-
SOUTHWEST NORTH DAKOTA

CITY           SKY/WX    TMP DP  RH WIND       PRES   REMARKS
BISMARCK       CLEAR     54  54 100 W3        29.79R
DICKINSON      MOCLDY    53  47  79 W9        29.79F
GARRISON         N/A     49  48  97 CALM      29.77R
HETTINGER ARPT CLEAR     48  45  89 W6        29.85R
$$

NDZ004>008-012>016-024-026-027-054-011000-
NORTHEAST NORTH DAKOTA

CITY           SKY/WX    TMP DP  RH WIND       PRES   REMARKS
GRAND FORKS    PTCLDY    53  52  96 W5        29.66S
GRND FRKS AFB  PTCLDY    54  54 100 NW8       29.67F
DEVILS LAKE    MOCLDY    55  50  82 NW7       29.70S
$$

NDZ022-023-025-028>030-036>039-047>053-011000-
SOUTHEAST NORTH DAKOTA

CITY           SKY/WX    TMP DP  RH WIND       PRES   REMARKS
FARGO          MOCLDY    56  54  93 NW7       29.68R
JAMESTOWN      CLOUDY    57  54  89 NW6       29.72S
$$



USA.gov is the U.S. government's official web portal to all federal, state and local government web resources and services.